Radiation Dose at Monitoring Post of Fukushima Daini Nuclear Power Station
Date,Time,MP-1(microSv/h),MP-2(microSv/h),MP-3(microSv/h),MP-4(microSv/h),MP-5(microSv/h),MP-6(microSv/h),MP-7(microSv/h),Wind Direction,Wind Velocity(m/s),Rain
2014/10/14,00:00,0.593,0.417,0.629,0.569,0.583,0.265,0.233,southeast,5.1,Yes
2014/10/14,00:10,0.592,0.419,0.628,0.568,0.583,0.265,0.233,east-southeast,6.1,Yes
2014/10/14,00:20,0.596,0.423,0.631,0.577,0.588,0.267,0.235,east-southeast,9.7,Yes
2014/10/14,00:30,0.598,0.423,0.636,0.579,0.588,0.267,0.236,southeast,13.6,Yes
2014/10/14,00:40,0.603,0.423,0.641,0.581,0.591,0.269,0.236,southeast,16.1,Yes
2014/10/14,00:50,0.601,0.423,0.641,0.585,0.592,0.266,0.236,southeast,15.8,Yes
2014/10/14,01:00,0.600,0.421,0.638,0.582,0.588,0.266,0.234,southeast,16.5,Yes
2014/10/14,01:10,0.597,0.420,0.637,0.578,0.589,0.263,0.234,east-southeast,18.0,Yes
2014/10/14,01:20,0.596,0.419,0.633,0.579,0.586,0.264,0.233,southeast,18.3,Yes
2014/10/14,01:30,0.595,0.420,0.634,0.576,0.585,0.263,0.236,southeast,17.6,Yes
2014/10/14,01:40,0.591,0.416,0.626,0.571,0.583,0.261,0.232,east-southeast,15.1,Yes
2014/10/14,01:50,0.589,0.417,0.625,0.571,0.583,0.262,0.233,east-southeast,20.7,Yes
2014/10/14,02:00,0.587,0.416,0.621,0.571,0.583,0.261,0.232,east-southeast,19.1,Yes
2014/10/14,02:10,0.587,0.417,0.622,0.571,0.583,0.263,0.234,southeast,16.1,Yes
2014/10/14,02:20,0.591,0.419,0.625,0.577,0.587,0.263,0.236,southeast,15.6,Yes
2014/10/14,02:30,0.592,0.419,0.623,0.576,0.585,0.265,0.238,east-southeast,16.8,Yes
2014/10/14,02:40,0.586,0.418,0.618,0.572,0.582,0.263,0.237,east,13.7,Yes
2014/10/14,02:50,0.584,0.417,0.617,0.572,0.581,0.262,0.238,southeast,9.8,Yes
2014/10/14,03:00,0.583,0.417,0.619,0.573,0.578,0.262,0.236,east-southeast,7.5,Yes
2014/10/14,03:10,0.580,0.414,0.609,0.564,0.572,0.258,0.234,southwest,5.4,Yes
2014/10/14,03:20,0.572,0.413,0.611,0.567,0.571,0.259,0.234,south,14.7,Yes
2014/10/14,03:30,0.577,0.418,0.620,0.577,0.575,0.261,0.236,south,14.6,Yes
2014/10/14,03:40,0.584,0.418,0.626,0.580,0.579,0.263,0.237,south,15.5,Yes
2014/10/14,03:50,0.587,0.419,0.627,0.580,0.580,0.264,0.237,south,16.6,Yes
2014/10/14,04:00,0.587,0.419,0.626,0.579,0.578,0.263,0.236,south,15.0,Yes
2014/10/14,04:10,0.587,0.417,0.625,0.577,0.579,0.265,0.237,south,12.2,Yes
2014/10/14,04:20,0.587,0.416,0.626,0.575,0.579,0.264,0.235,south,15.1,Yes
2014/10/14,04:30,0.589,0.420,0.629,0.580,0.582,0.267,0.238,south,15.1,Yes
2014/10/14,04:40,0.594,0.422,0.635,0.588,0.589,0.271,0.239,south,13.8,Yes
2014/10/14,04:50,0.594,0.423,0.636,0.589,0.589,0.269,0.239,south,13.5,Yes
2014/10/14,05:00,0.597,0.423,0.637,0.591,0.590,0.269,0.240,south,14.8,Yes
2014/10/14,05:10,0.597,0.422,0.638,0.593,0.589,0.267,0.237,south-southwest,15.2,Yes
2014/10/14,05:20,0.594,0.420,0.636,0.588,0.588,0.265,0.237,west-southwest,16.6,Yes
2014/10/14,05:30,0.594,0.420,0.636,0.588,0.588,0.265,0.236,west,7.4,Yes
2014/10/14,05:40,0.596,0.419,0.637,0.589,0.588,0.264,0.234,west,8.6,No
2014/10/14,05:50,0.595,0.418,0.638,0.586,0.587,0.265,0.235,west,8.8,No
2014/10/14,06:00,0.594,0.417,0.638,0.586,0.588,0.264,0.232,west,9.7,No
2014/10/14,06:10,0.596,0.419,0.637,0.586,0.587,0.261,0.231,west,9.9,No
2014/10/14,06:20,0.594,0.415,0.638,0.585,0.586,0.261,0.230,west-northwest,8.1,No
2014/10/14,06:30,0.594,0.415,0.638,0.585,0.585,0.261,0.230,west-northwest,5.6,No
2014/10/14,06:40,0.594,0.416,0.638,0.585,0.586,0.262,0.228,north-northwest,3.6,No
2014/10/14,06:50,0.595,0.416,0.638,0.585,0.585,0.261,0.230,north,5.3,No
2014/10/14,07:00,0.595,0.416,0.639,0.586,0.587,0.261,0.228,north,5.0,No
2014/10/14,07:10,0.595,0.417,0.637,0.583,0.585,0.260,0.226,north,6.6,No
2014/10/14,07:20,0.595,0.417,0.639,0.581,0.587,0.260,0.228,north-northeast,5.6,No
2014/10/14,07:30,0.596,0.416,0.639,0.582,0.586,0.260,0.227,north,6.3,No
2014/10/14,07:40,0.598,0.415,0.637,0.582,0.588,0.259,0.228,north-northwest,6.5,No
2014/10/14,07:50,0.598,0.415,0.640,0.581,0.587,0.261,0.227,north,4.2,No
2014/10/14,08:00,0.596,0.416,0.639,0.583,0.587,0.259,0.228,north-northwest,5.1,No
2014/10/14,08:10,0.600,0.416,0.639,0.584,0.587,0.262,0.227,north,5.6,No
2014/10/14,08:20,0.599,0.418,0.642,0.584,0.586,0.260,0.227,north,6.5,No
2014/10/14,08:30,0.599,0.418,0.641,0.583,0.587,0.261,0.229,north,6.3,No
2014/10/14,08:40,0.600,0.417,0.640,0.583,0.588,0.262,0.226,north-northeast,6.1,No
2014/10/14,08:50,0.598,0.418,0.640,0.584,0.588,0.261,0.228,north-northeast,6.0,No
2014/10/14,09:00,0.601,0.419,0.642,0.585,0.588,0.263,0.229,north-northwest,3.4,No
2014/10/14,09:10,0.600,0.419,0.641,0.586,0.587,0.261,0.228,north-northwest,6.9,No
2014/10/14,09:20,0.600,0.418,0.643,0.585,0.589,0.262,0.229,northwest,5.6,No
2014/10/14,09:30,0.601,0.418,0.644,0.584,0.588,0.262,0.228,north,1.9,No
2014/10/14,09:40,0.601,0.419,0.643,0.588,0.587,0.261,0.227,north-northwest,2.2,No
2014/10/14,09:50,0.601,0.420,0.643,0.587,0.590,0.263,0.230,north-northwest,5.2,No
2014/10/14,10:00,0.602,0.421,0.642,0.588,0.590,0.263,0.229,north-northwest,7.5,No
2014/10/14,10:10,0.606,0.422,0.642,0.591,0.591,0.262,0.229,north-northwest,8.7,No
2014/10/14,10:20,0.606,0.422,0.644,0.596,0.592,0.262,0.227,north-northwest,8.1,No
2014/10/14,10:30,0.608,0.423,0.644,0.597,0.594,0.263,0.227,north-northwest,9.3,No
2014/10/14,10:40,0.610,0.424,0.648,0.599,0.596,0.264,0.229,north-northwest,9.1,No
2014/10/14,10:50,0.609,0.426,0.646,0.604,0.595,0.263,0.227,north-northwest,8.6,No
2014/10/14,11:00,0.611,0.426,0.648,0.600,0.594,0.263,0.228,north-northwest,9.2,No
2014/10/14,11:10,0.612,0.427,0.649,0.603,0.594,0.265,0.228,north-northwest,9.9,No
2014/10/14,11:20,0.614,0.427,0.649,0.603,0.594,0.263,0.228,north-northwest,8.8,No
2014/10/14,11:30,0.617,0.426,0.650,0.605,0.593,0.265,0.228,north-northwest,12.6,No
2014/10/14,11:40,0.616,0.426,0.654,0.605,0.594,0.266,0.229,north-northwest,9.2,No
2014/10/14,11:50,0.617,0.426,0.655,0.604,0.594,0.268,0.232,north-northwest,9.5,No
2014/10/14,12:00,0.617,0.426,0.652,0.603,0.593,0.268,0.232,north-northwest,9.7,No
2014/10/14,12:10,0.617,0.426,0.657,0.603,0.593,0.267,0.230,north-northwest,7.8,No
2014/10/14,12:20,0.618,0.427,0.655,0.604,0.594,0.266,0.231,north-northwest,9.0,No
2014/10/14,12:30,0.620,0.426,0.653,0.604,0.594,0.266,0.230,northwest,9.0,No
2014/10/14,12:40,0.618,0.424,0.655,0.607,0.596,0.266,0.230,north-northwest,9.6,No
2014/10/14,12:50,0.618,0.428,0.656,0.605,0.596,0.266,0.231,north-northwest,10.8,No
2014/10/14,13:00,0.621,0.427,0.654,0.607,0.596,0.266,0.230,north-northwest,9.5,No
2014/10/14,13:10,0.617,0.427,0.654,0.606,0.595,0.267,0.230,north-northwest,8.8,No
2014/10/14,13:20,0.618,0.427,0.656,0.605,0.596,0.267,0.229,north-northwest,6.8,No
2014/10/14,13:30,0.618,0.428,0.654,0.604,0.596,0.268,0.231,north-northwest,9.9,No
2014/10/14,13:40,0.618,0.427,0.655,0.602,0.597,0.270,0.232,northwest,10.5,No
2014/10/14,13:50,0.617,0.427,0.654,0.605,0.593,0.268,0.232,northwest,8.3,No
2014/10/14,14:00,0.619,0.427,0.654,0.601,0.595,0.269,0.231,northwest,7.3,No
2014/10/14,14:10,0.618,0.427,0.655,0.603,0.595,0.268,0.234,northwest,5.8,No
2014/10/14,14:20,0.618,0.429,0.655,0.602,0.596,0.268,0.233,northwest,4.6,No
2014/10/14,14:30,0.618,0.429,0.655,0.603,0.595,0.267,0.233,northwest,6.4,No
2014/10/14,14:40,0.615,0.427,0.654,0.605,0.594,0.269,0.234,northwest,10.0,No
2014/10/14,14:50,0.616,0.428,0.653,0.605,0.593,0.267,0.233,northwest,6.6,No
2014/10/14,15:00,0.614,0.428,0.655,0.603,0.594,0.266,0.231,northwest,5.6,No
2014/10/14,15:10,0.617,0.428,0.656,0.605,0.592,0.267,0.233,north-northwest,3.2,No
2014/10/14,15:20,0.618,0.427,0.655,0.604,0.594,0.268,0.231,northwest,3.8,No
2014/10/14,15:30,0.617,0.427,0.656,0.603,0.593,0.266,0.231,northwest,4.2,No
2014/10/14,15:40,0.618,0.428,0.655,0.601,0.595,0.269,0.232,northwest,5.5,No
2014/10/14,15:50,0.618,0.428,0.656,0.602,0.594,0.266,0.232,north-northwest,5.7,No
2014/10/14,16:00,0.615,0.428,0.654,0.600,0.593,0.268,0.234,northwest,4.5,No
2014/10/14,16:10,0.617,0.429,0.654,0.601,0.593,0.267,0.233,west,5.7,No
2014/10/14,16:20,0.617,0.427,0.657,0.600,0.593,0.268,0.234,west,7.9,No
2014/10/14,16:30,0.614,0.428,0.655,0.600,0.596,0.269,0.232,west,7.6,No
2014/10/14,16:40,0.614,0.427,0.654,0.599,0.594,0.269,0.234,west,6.7,No
2014/10/14,16:50,0.614,0.427,0.655,0.597,0.593,0.269,0.232,west-northwest,6.6,No
2014/10/14,17:00,0.614,0.428,0.652,0.597,0.593,0.268,0.234,west-northwest,6.0,No
2014/10/14,17:10,0.613,0.428,0.652,0.598,0.592,0.269,0.234,west-northwest,5.9,No
2014/10/14,17:20,0.612,0.426,0.653,0.595,0.592,0.268,0.233,west-northwest,6.3,No
2014/10/14,17:30,0.614,0.426,0.653,0.593,0.591,0.270,0.232,west-northwest,5.4,No
2014/10/14,17:40,0.612,0.426,0.653,0.594,0.592,0.269,0.233,west-northwest,7.0,No
2014/10/14,17:50,0.610,0.425,0.654,0.593,0.590,0.270,0.232,west-northwest,7.0,No
2014/10/14,18:00,0.612,0.426,0.654,0.594,0.590,0.268,0.235,west-northwest,6.3,No
2014/10/14,18:10,0.606,0.425,0.652,0.590,0.589,0.269,0.233,west-northwest,6.1,No
2014/10/14,18:20,0.610,0.426,0.651,0.591,0.590,0.269,0.234,west-northwest,5.0,No
2014/10/14,18:30,0.609,0.426,0.650,0.590,0.589,0.268,0.233,west-northwest,4.4,No
2014/10/14,18:40,0.610,0.425,0.652,0.590,0.589,0.268,0.233,west-northwest,5.0,No
2014/10/14,18:50,0.609,0.426,0.650,0.590,0.590,0.268,0.233,west-northwest,5.7,No
2014/10/14,19:00,0.608,0.426,0.652,0.590,0.590,0.269,0.233,west-northwest,6.0,No
2014/10/14,19:10,0.608,0.425,0.652,0.591,0.589,0.267,0.234,west-northwest,6.3,No
2014/10/14,19:20,0.608,0.424,0.652,0.592,0.588,0.269,0.231,west-northwest,4.4,No
2014/10/14,19:30,0.608,0.424,0.652,0.592,0.589,0.267,0.233,west-northwest,4.6,No
2014/10/14,19:40,0.610,0.425,0.654,0.593,0.591,0.270,0.233,west-northwest,5.6,No
2014/10/14,19:50,0.611,0.427,0.653,0.591,0.590,0.268,0.233,west-northwest,6.3,No
2014/10/14,20:00,0.610,0.425,0.654,0.590,0.588,0.270,0.234,west-northwest,6.4,No
2014/10/14,20:10,0.611,0.425,0.651,0.591,0.592,0.268,0.232,west-northwest,6.1,No
2014/10/14,20:20,0.610,0.426,0.653,0.589,0.589,0.269,0.233,west-northwest,5.8,No
2014/10/14,20:30,0.610,0.426,0.653,0.592,0.588,0.269,0.234,northwest,4.8,No
2014/10/14,20:40,0.613,0.426,0.651,0.591,0.592,0.267,0.234,northwest,4.6,No
2014/10/14,20:50,0.611,0.425,0.653,0.591,0.591,0.269,0.234,northwest,3.2,No
2014/10/14,21:00,0.611,0.426,0.653,0.590,0.591,0.268,0.235,north-northwest,3.1,No
2014/10/14,21:10,0.610,0.425,0.653,0.591,0.590,0.268,0.233,north-northwest,4.3,No
2014/10/14,21:20,0.611,0.426,0.652,0.590,0.591,0.268,0.234,north,4.1,No
2014/10/14,21:30,0.609,0.427,0.653,0.589,0.591,0.269,0.234,north-northwest,3.4,No
2014/10/14,21:40,0.611,0.426,0.652,0.591,0.591,0.270,0.233,north-northwest,4.4,No
2014/10/14,21:50,0.613,0.428,0.655,0.590,0.591,0.268,0.233,north-northwest,3.7,No
2014/10/14,22:00,0.611,0.428,0.654,0.591,0.590,0.269,0.233,northwest,4.6,No
2014/10/14,22:10,0.611,0.425,0.652,0.589,0.590,0.268,0.233,northwest,4.6,No
2014/10/14,22:20,0.611,0.426,0.653,0.591,0.588,0.268,0.234,northwest,6.4,No
2014/10/14,22:30,0.612,0.427,0.653,0.591,0.592,0.269,0.234,northwest,5.2,No
2014/10/14,22:40,0.612,0.427,0.655,0.591,0.591,0.268,0.233,northwest,5.2,No
2014/10/14,22:50,0.611,0.426,0.653,0.591,0.590,0.268,0.234,northwest,5.2,No
2014/10/14,23:00,0.612,0.425,0.653,0.589,0.589,0.267,0.233,northwest,4.2,No
2014/10/14,23:10,0.612,0.424,0.654,0.590,0.593,0.268,0.232,west-northwest,4.2,No
2014/10/14,23:20,0.613,0.426,0.653,0.590,0.590,0.269,0.233,northwest,4.5,No
2014/10/14,23:30,0.611,0.425,0.651,0.590,0.590,0.268,0.232,northwest,3.9,No
2014/10/14,23:40,0.611,0.426,0.652,0.589,0.590,0.268,0.234,northwest,4.3,No
2014/10/14,23:50,0.612,0.426,0.653,0.591,0.592,0.268,0.233,northwest,4.3,No
